Burnsville, North Carolina, United States (28714)
Lat: 35.92N, Lon: 82.3W
Wx Zone: NCZ049
Local Info
Past Weather Observations for Saturday, July 26, 2014

NOTE: This archive is for the closest National Weather Service station to Burnsville. Information may differ from the station used for current weather conditions.

Click here for Long-term Archive

Time Weather Temperature Dewpoint Humidity Pressure Winds Precip Visibility
23:54
Clear
70°F / 21°C 66°F / 19°C 88% 30.09 in
(1019 mb)
N 8.1 mph
(N 13 kph)
- 10SM
22:54
Clear
72°F / 22°C 66°F / 19°C 83% 30.09 in
(1019 mb)
Calm - 10SM
21:54
Clear
72°F / 22°C 66°F / 19°C 83% 30.09 in
(1019 mb)
SSE 4.6 mph
(SSE 7 kph)
- 10SM
20:54
Clear
73°F / 23°C 66°F / 19°C 78% 30.09 in
(1019 mb)
SSE 4.6 mph
(SSE 7 kph)
- 10SM
19:54
Clear
75°F / 24°C 64°F / 18°C 69% 30.09 in
(1019 mb)
SSE 4.6 mph
(SSE 7 kph)
- 10SM
18:54
Clear
79°F / 26°C 63°F / 17°C 58% 30.06 in
(1018 mb)
S 6.9 mph
(S 11 kph)
- 10SM
17:54
Clear
81°F / 27°C 64°F / 18°C 58% 30.06 in
(1018 mb)
S 9.2 mph
(S 15 kph)
- 10SM
16:54
Clear
82°F / 28°C 66°F / 19°C 58% 30.06 in
(1018 mb)
S 12.7 mph
(S 20 kph)
- 10SM
15:54
Clear
82°F / 28°C 63°F / 17°C 51% 30.06 in
(1018 mb)
Calm - 10SM
14:54
Clear
84°F / 29°C 63°F / 17°C 48% 30.06 in
(1018 mb)
SW 3.5 mph
(SW 6 kph)
- 10SM
13:54
Clear
82°F / 28°C 61°F / 16°C 48% 30.09 in
(1019 mb)
Variable 4.6 mph
(Variable 7 kph)
- 10SM
12:54
Clear
82°F / 28°C 61°F / 16°C 48% 30.12 in
(1020 mb)
Variable 5.8 mph
(Variable 9 kph)
- 10SM
11:54
Clear
81°F / 27°C 61°F / 16°C 51% 30.12 in
(1020 mb)
N 10.4 mph
(N 17 kph)
- 10SM
10:54
Clear
79°F / 26°C 63°F / 17°C 58% 30.12 in
(1020 mb)
NNW 6.9 mph
(NNW 11 kph)
- 10SM
09:54
Clear
75°F / 24°C 63°F / 17°C 65% 30.12 in
(1020 mb)
NNW 12.7 mph
(NNW 20 kph)
- 10SM
08:54
Clear
73°F / 23°C 64°F / 18°C 74% 30.12 in
(1020 mb)
NNW 8.1 mph
(NNW 13 kph)
- 10SM
08:29
Partly Cloudy
70°F / 21°C 64°F / 18°C 83% 30.12 in
(1020 mb)
NNW 10.4 mph
(NNW 17 kph)
- 10SM
08:20
Mostly Cloudy
70°F / 21°C 64°F / 18°C 83% 30.12 in
(1020 mb)
N 8.1 mph
(N 13 kph)
- 10SM
07:54
Overcast
Fog And Mist
68°F / 20°C 64°F / 18°C 88% 30.12 in
(1020 mb)
NNW 8.1 mph
(NNW 13 kph)
- 2SM
07:36
Overcast
Fog And Mist
66°F / 19°C 64°F / 18°C 94% 30.12 in
(1020 mb)
NW 8.1 mph
(NW 13 kph)
- 2SM
07:03
Overcast
Fog And Mist
66°F / 19°C 64°F / 18°C 94% 30.12 in
(1020 mb)
NNW 6.9 mph
(NNW 11 kph)
- 2SM
06:54
Overcast
Fog And Mist
66°F / 19°C 64°F / 18°C 94% 30.12 in
(1020 mb)
NNW 8.1 mph
(NNW 13 kph)
- 2SM
05:54
Overcast
Fog And Mist
64°F / 18°C 64°F / 18°C 100% 30.09 in
(1019 mb)
NNW 5.8 mph
(NNW 9 kph)
- 2SM
05:25
Overcast
Fog And Mist
64°F / 18°C 63°F / 17°C 94% 30.09 in
(1019 mb)
NNW 10.4 mph
(NNW 17 kph)
- 2SM
05:09
Overcast
64°F / 18°C 64°F / 18°C 100% 30.09 in
(1019 mb)
NNW 10.4 mph
(NNW 17 kph)
- 7SM
05:02
Overcast
Fog And Mist
66°F / 19°C 64°F / 18°C 94% 30.09 in
(1019 mb)
NNW 10.4 mph
(NNW 17 kph)
- 2 1/2SM
04:54
Overcast
Fog And Mist
66°F / 19°C 64°F / 18°C 94% 30.09 in
(1019 mb)
NW 6.9 mph
(NW 11 kph)
- 1 1/4SM
04:41
Overcast
Fog And Mist
66°F / 19°C 64°F / 18°C 94% 30.09 in
(1019 mb)
NW 3.5 mph
(NW 6 kph)
- 2SM
04:34
Obscured
Fog And Mist
66°F / 19°C 64°F / 18°C 94% 30.09 in
(1019 mb)
NW 3.5 mph
(NW 6 kph)
- 1SM
04:19
Obscured
Fog And Mist
66°F / 19°C 64°F / 18°C 94% 30.09 in
(1019 mb)
NNW 3.5 mph
(NNW 6 kph)
- 3/4SM
04:10
Obscured
Fog
66°F / 19°C 64°F / 18°C 94% 30.09 in
(1019 mb)
Calm - 1/4SM
04:02
Obscured
Fog
66°F / 19°C 64°F / 18°C 94% 30.09 in
(1019 mb)
Calm - 1/2SM
03:54
Obscured
Fog
66°F / 19°C 64°F / 18°C 94% 30.09 in
(1019 mb)
Calm - 1/2SM
03:40
Obscured
Fog
66°F / 19°C 64°F / 18°C 94% 30.09 in
(1019 mb)
Calm - 1/4SM
03:34
Obscured
Fog And Mist
64°F / 18°C 64°F / 18°C 100% 30.09 in
(1019 mb)
Calm - 1SM
03:32
Partly Cloudy
Fog And Mist
64°F / 18°C 64°F / 18°C 100% 30.09 in
(1019 mb)
Calm - 2SM
03:05
Partly Cloudy
Fog And Mist
66°F / 19°C 64°F / 18°C 94% 30.09 in
(1019 mb)
Calm - 6SM
03:01
Mostly Cloudy
Fog And Mist
66°F / 19°C 64°F / 18°C 94% 30.09 in
(1019 mb)
Calm - 3SM
02:59
Mostly Cloudy
Fog And Mist
66°F / 19°C 64°F / 18°C 94% 30.09 in
(1019 mb)
Calm - 1 1/2SM
02:54
Obscured
Fog
66°F / 19°C 64°F / 18°C 94% 30.09 in
(1019 mb)
Calm - 1/2SM
02:43
Obscured
Fog And Mist
66°F / 19°C 64°F / 18°C 94% 30.09 in
(1019 mb)
SSE 3.5 mph
(SSE 6 kph)
- 3/4SM
02:41
Partly Cloudy
Fog And Mist
66°F / 19°C 64°F / 18°C 94% 30.09 in
(1019 mb)
S 3.5 mph
(S 6 kph)
- 1 3/4SM
02:35
Partly Cloudy
66°F / 19°C 64°F / 18°C 94% 30.09 in
(1019 mb)
Calm - 8SM
02:04
Mostly Cloudy
Fog And Mist
66°F / 19°C 66°F / 19°C 100% 30.09 in
(1019 mb)
SE 3.5 mph
(SE 6 kph)
- 5SM
01:54
Partly Cloudy
Fog And Mist
66°F / 19°C 66°F / 19°C 100% 30.09 in
(1019 mb)
Calm - 6SM
01:47
Mostly Cloudy
68°F / 20°C 66°F / 19°C 94% 30.09 in
(1019 mb)
S 3.5 mph
(S 6 kph)
- 7SM
00:54
Overcast
70°F / 21°C 66°F / 19°C 88% 30.12 in
(1020 mb)
Calm 0.00 in
(0.00 mm)
10SM
00:33
Mostly Cloudy
70°F / 21°C 66°F / 19°C 88% 30.12 in
(1020 mb)
Calm 0.00 in
(0.00 mm)
10SM
Time Weather Temperature Dewpoint Humidity Pressure Winds Precip Visibility


Weather for websites

WeatherForYou.com, LLC is not responsible for any damages or problems caused by this service. Current weather conditions are obtained from the closest station including government and personal stations which may have varying degrees of accuracy. Weather forecasts are derived from the NOAA NDFD. Like all things, this site belongs to Jesus Christ... He just trusts me to maintain it. If you have any questions or comments email webmaster@weatherforyou.com

Copyright © 2014, WeatherForYou.com LLC. All rights reserved.